26-03-2023, 00:00:09,    161,    0.0,    5.9,   0.00,   0.00, 1001.0,    0.7, -999.0
26-03-2023, 00:00:19,    161,    0.0,    5.9,   0.00,   0.00, 1001.0,    0.5, -999.0
26-03-2023, 00:00:29,    161,    0.0,    5.9,   0.00,   0.00, 1001.0,    0.8, -999.0
26-03-2023, 00:00:39,    161,    0.0,    5.9,   0.00,   0.00, 1001.0,    0.5, -999.0
26-03-2023, 00:00:49,    161,    0.0,    5.9,   0.00,   0.00, 1000.9,    0.5, -999.0
26-03-2023, 00:00:59,    161,    0.0,    5.8,   0.00,   0.00, 1000.9,    0.6, -999.0
26-03-2023, 00:01:09,    161,    0.0,    5.9,   0.00,   0.00, 1000.9,    0.5, -999.0
26-03-2023, 00:01:19,    161,    0.0,    5.7,   0.00,   0.00, 1000.9,    0.9, -999.0
26-03-2023, 00:01:29,    161,    0.0,    5.7,   0.00,   0.00, 1000.9,    0.7, -999.0
26-03-2023, 00:01:39,    161,    0.0,    5.8,   0.00,   0.00, 1000.9,    0.4, -999.0
26-03-2023, 00:01:49,    161,    0.0,    5.8,   0.00,   0.00, 1000.9,    0.6, -999.0
26-03-2023, 00:01:59,    161,    0.0,    5.7,   0.00,   0.00, 1000.9,    0.8, -999.0
26-03-2023, 00:02:09,    161,    0.0,    5.7,   0.00,   0.00, 1000.9,    0.6, -999.0
26-03-2023, 00:02:19,    161,    0.0,    5.8,   0.00,   0.00, 1000.9,    0.7, -999.0
26-03-2023, 00:02:29,    161,    0.0,    5.9,   0.00,   0.00, 1000.9,    0.8, -999.0
26-03-2023, 00:02:39,    161,    0.0,    5.8,   0.00,   0.00, 1000.9,    0.8, -999.0
26-03-2023, 00:02:49,    161,    0.0,    5.8,   0.00,   0.00, 1000.9,    0.9, -999.0
26-03-2023, 00:02:59,    161,    0.0,    5.8,   0.00,   0.00, 1000.9,    0.7, -999.0
26-03-2023, 00:03:09,    161,    0.0,    5.8,   0.00,   0.00, 1000.9,    0.6, -999.0
26-03-2023, 00:03:19,    160,    0.0,    5.8,   0.00,   0.00, 1000.9,    0.7, -999.0
26-03-2023, 00:03:29,    160,    0.0,    5.8,   0.00,   0.00, 1000.8,    0.7, -999.0
26-03-2023, 00:03:39,    160,    0.0,    5.8,   0.00,   0.00, 1000.9,    0.7, -999.0
26-03-2023, 00:03:49,    161,    0.0,    5.8,   0.00,   0.00, 1000.8,    0.6, -999.0
26-03-2023, 00:03:59,    159,    0.0,    5.9,   0.00,   0.00, 1000.8,    0.8, -999.0
26-03-2023, 00:04:09,    160,    0.0,    6.1,   0.00,   0.00, 1000.8,    0.6, -999.0
26-03-2023, 00:04:19,    160,    0.0,    6.0,   0.00,   0.00, 1000.8,    0.6, -999.0
26-03-2023, 00:04:29,    161,    0.0,    6.0,   0.00,   0.00, 1000.8,    0.9, -999.0
26-03-2023, 00:04:38,    161,    0.2,    6.1,   0.00,   0.00, 1001.0,    1.1, -999.0
26-03-2023, 00:04:49,    159,    0.0,    5.9,   0.00,   0.00, 1000.8,    0.8, -999.0
26-03-2023, 00:04:59,    160,    0.0,    5.9,   0.00,   0.00, 1000.8,    0.5, -999.0
26-03-2023, 00:05:09,    160,    0.0,    5.9,   0.00,   0.00, 1000.9,    0.2, -999.0
26-03-2023, 00:05:18,    160,    0.0,    5.9,   0.00,   0.00, 1000.8,    0.7, -999.0
26-03-2023, 00:05:29,    160,    0.0,    5.9,   0.00,   0.00, 1000.8,    0.7, -999.0
26-03-2023, 00:05:39,    160,    0.0,    5.8,   0.00,   0.00, 1000.8,    0.6, -999.0
26-03-2023, 00:05:48,    160,    0.0,    5.9,   0.00,   0.00, 1000.8,    0.5, -999.0
26-03-2023, 00:05:58,    160,    0.0,    5.9,   0.00,   0.00, 1000.8,    0.6, -999.0
26-03-2023, 00:06:09,    160,    0.0,    5.8,   0.00,   0.00, 1000.8,    0.6, -999.0
26-03-2023, 00:06:18,    160,    0.0,    5.9,   0.00,   0.00, 1000.8,    0.6, -999.0
26-03-2023, 00:06:28,    161,    0.2,    5.9,   0.00,   0.00, 1000.9,    0.6, -999.0
26-03-2023, 00:06:38,    160,    0.8,    5.9,   0.00,   0.00, 1001.0,    0.8, -999.0
26-03-2023, 00:06:49,    160,    0.1,    5.8,   0.00,   0.00, 1000.9,    0.6, -999.0
26-03-2023, 00:06:58,    160,    0.0,    5.8,   0.00,   0.00, 1000.8,    0.7, -999.0
26-03-2023, 00:07:08,    160,    0.0,    5.7,   0.00,   0.00, 1000.8,    0.6, -999.0
26-03-2023, 00:07:18,    160,    0.0,    5.7,   0.00,   0.00, 1000.8,    0.7, -999.0
26-03-2023, 00:07:28,    160,    0.3,    5.9,   0.00,   0.00, 1000.9,    0.3, -999.0
26-03-2023, 00:07:38,    158,    0.5,    5.9,   0.00,   0.00, 1000.9,    0.8, -999.0
26-03-2023, 00:07:48,    166,    1.0,    5.8,   0.00,   0.00, 1000.9,    0.1, -999.0
26-03-2023, 00:07:59,    184,    0.4,    5.7,   0.00,   0.00, 1000.9,    0.4, -999.0
26-03-2023, 00:08:08,    184,    0.0,    5.8,   0.00,   0.00, 1000.8,    0.9, -999.0
26-03-2023, 00:08:18,    179,    0.1,    5.8,   0.00,   0.00, 1000.8,    0.9, -999.0
26-03-2023, 00:08:28,    180,    0.1,    5.7,   0.00,   0.00, 1000.9,    0.5, -999.0
26-03-2023, 00:08:38,    182,    0.5,    5.7,   0.00,   0.00, 1000.9,    0.8, -999.0
26-03-2023, 00:08:48,    180,    0.2,    5.7,   0.00,   0.00, 1000.9,    0.7, -999.0
26-03-2023, 00:08:58,    179,    0.0,    5.7,   0.00,   0.00, 1000.7,    0.6, -999.0
26-03-2023, 00:09:08,    180,    0.0,    5.6,   0.00,   0.00, 1000.7,    0.6, -999.0
26-03-2023, 00:09:18,    179,    0.3,    5.8,   0.00,   0.00, 1000.9,    0.8, -999.0
26-03-2023, 00:09:28,    179,    0.0,    5.8,   0.00,   0.00, 1000.8,    0.5, -999.0
26-03-2023, 00:09:38,    179,    0.0,    5.7,   0.00,   0.00, 1000.7,    0.7, -999.0
26-03-2023, 00:09:48,    179,    0.0,    5.7,   0.00,   0.00, 1000.8,    0.9, -999.0
26-03-2023, 00:09:58,    178,    0.0,    5.7,   0.00,   0.00, 1000.8,    0.5, -999.0
26-03-2023, 00:10:08,    179,    0.0,    5.8,   0.00,   0.00, 1000.7,    0.6, -999.0
26-03-2023, 00:10:18,    179,    0.0,    5.7,   0.00,   0.00, 1000.7,    0.6, -999.0
26-03-2023, 00:10:28,    180,    0.0,    5.8,   0.00,   0.00, 1000.7,    0.6, -999.0
26-03-2023, 00:10:38,    180,    0.0,    5.7,   0.00,   0.00, 1000.7,    0.6, -999.0
26-03-2023, 00:10:48,    180,    0.0,    5.8,   0.00,   0.00, 1000.7,    0.9, -999.0
26-03-2023, 00:10:58,    180,    0.0,    5.7,   0.00,   0.00, 1000.7,    0.5, -999.0
26-03-2023, 00:11:08,    179,    0.0,    5.7,   0.00,   0.00, 1000.7,    0.8, -999.0
26-03-2023, 00:11:18,    169,    0.0,    5.7,   0.00,   0.00, 1000.7,    0.8, -999.0
26-03-2023, 00:11:28,    169,    0.0,    5.8,   0.00,   0.00, 1000.8,    0.5, -999.0
26-03-2023, 00:11:38,    169,    0.0,    5.7,   0.00,   0.00, 1000.7,    0.8, -999.0
26-03-2023, 00:11:48,    168,    0.1,    5.7,   0.00,   0.00, 1000.7,    0.6, -999.0
26-03-2023, 00:11:58,    166,    1.1,    5.9,   0.00,   0.00, 1000.8,    0.7, -999.0
26-03-2023, 00:12:08,    157,    1.0,    5.8,   0.00,   0.00, 1000.8,    0.9, -999.0
26-03-2023, 00:12:18,    157,    0.2,    5.7,   0.00,   0.00, 1000.7,    0.6, -999.0
26-03-2023, 00:12:28,    156,    0.1,    5.8,   0.00,   0.00, 1000.8,    1.0, -999.0
26-03-2023, 00:12:38,    156,    0.0,    5.8,   0.00,   0.00, 1000.7,    0.6, -999.0
26-03-2023, 00:12:48,    156,    0.0,    5.7,   0.00,   0.00, 1000.6,    0.7, -999.0
26-03-2023, 00:12:58,    156,    0.0,    5.7,   0.00,   0.00, 1000.6,    0.3, -999.0
26-03-2023, 00:13:08,    156,    0.0,    5.8,   0.00,   0.00, 1000.6,    0.4, -999.0
26-03-2023, 00:13:18,    156,    0.0,    5.7,   0.00,   0.00, 1000.7,    1.1, -999.0
26-03-2023, 00:13:28,    157,    0.0,    5.7,   0.00,   0.00, 1000.6,    0.3, -999.0
26-03-2023, 00:13:37,    157,    0.0,    5.7,   0.00,   0.00, 1000.6,    0.1, -999.0
26-03-2023, 00:13:48,    157,    0.0,    5.7,   0.00,   0.00, 1000.7,    0.5, -999.0
26-03-2023, 00:13:58,    157,    0.0,    5.7,   0.00,   0.00, 1000.6,    0.6, -999.0
26-03-2023, 00:14:08,    156,    0.0,    5.7,   0.00,   0.00, 1000.6,    0.4, -999.0
26-03-2023, 00:14:17,    146,    1.5,    5.8,   0.00,   0.00, 1000.8,    0.7, -999.0
26-03-2023, 00:14:28,    145,    0.5,    5.8,   0.00,   0.00, 1000.8,    0.6, -999.0
26-03-2023, 00:14:38,    146,    0.0,    5.7,   0.00,   0.00, 1000.6,    1.1, -999.0
26-03-2023, 00:14:47,    150,    0.0,    5.7,   0.00,   0.00, 1000.7,    1.5, -999.0
26-03-2023, 00:14:57,    161,    0.1,    5.8,   0.00,   0.00, 1000.7,    0.2, -999.0
26-03-2023, 00:15:08,    159,    0.1,    5.6,   0.00,   0.00, 1000.7,    0.7, -999.0
26-03-2023, 00:15:18,    159,    0.1,    5.7,   0.00,   0.00, 1000.7,    0.6, -999.0
26-03-2023, 00:15:27,    158,    0.1,    5.8,   0.00,   0.00, 1000.7,    0.3, -999.0
26-03-2023, 00:15:37,    158,    0.0,    5.8,   0.00,   0.00, 1000.7,    0.4, -999.0
26-03-2023, 00:15:48,    158,    0.0,    5.7,   0.00,   0.00, 1000.6,    0.8, -999.0
26-03-2023, 00:15:57,    157,    0.0,    5.8,   0.00,   0.00, 1000.6,    0.3, -999.0
26-03-2023, 00:16:07,    157,    0.0,    5.8,   0.00,   0.00, 1000.6,    0.9, -999.0
26-03-2023, 00:16:17,    158,    0.0,    5.7,   0.00,   0.00, 1000.6,    0.6, -999.0
26-03-2023, 00:16:28,    157,    0.0,    5.7,   0.00,   0.00, 1000.6,    0.6, -999.0
26-03-2023, 00:16:37,    157,    0.0,    5.7,   0.00,   0.00, 1000.6,    0.5, -999.0
26-03-2023, 00:16:47,    155,    0.0,    5.7,   0.00,   0.00, 1000.6,    0.6, -999.0
26-03-2023, 00:16:57,    158,    0.0,    5.7,   0.00,   0.00, 1000.6,    0.7, -999.0
26-03-2023, 00:17:07,    158,    0.0,    5.7,   0.00,   0.00, 1000.6,    0.8, -999.0
26-03-2023, 00:17:17,    158,    0.0,    5.7,   0.00,   0.00, 1000.6,    0.4, -999.0
26-03-2023, 00:17:27,    158,    0.0,    5.6,   0.00,   0.00, 1000.6,    0.7, -999.0
26-03-2023, 00:17:37,    158,    0.0,    5.7,   0.00,   0.00, 1000.6,    0.6, -999.0
26-03-2023, 00:17:47,    158,    0.0,    5.7,   0.00,   0.00, 1000.6,    0.6, -999.0
26-03-2023, 00:17:57,    169,    0.2,    5.8,   0.00,   0.00, 1000.6,    0.6, -999.0
26-03-2023, 00:18:07,    170,    0.4,    5.8,   0.00,   0.00, 1000.7,    0.7, -999.0
26-03-2023, 00:18:17,    169,    0.0,    5.7,   0.00,   0.00, 1000.6,    0.7, -999.0
26-03-2023, 00:18:27,    169,    0.0,    5.8,   0.00,   0.00, 1000.6,    0.5, -999.0
26-03-2023, 00:18:37,    169,    0.0,    5.7,   0.00,   0.00, 1000.6,    0.5, -999.0
26-03-2023, 00:18:47,    169,    0.0,    5.7,   0.00,   0.00, 1000.6,    0.5, -999.0
26-03-2023, 00:18:57,    170,    0.0,    5.8,   0.00,   0.00, 1000.6,    0.6, -999.0
26-03-2023, 00:19:07,    170,    0.0,    5.8,   0.00,   0.00, 1000.6,    0.7, -999.0
26-03-2023, 00:19:17,    169,    0.0,    5.8,   0.00,   0.00, 1000.6,    0.6, -999.0
26-03-2023, 00:19:27,    169,    0.0,    5.8,   0.00,   0.00, 1000.6,    0.7, -999.0
26-03-2023, 00:19:37,    169,    0.0,    5.9,   0.00,   0.00, 1000.6,    0.7, -999.0
26-03-2023, 00:19:47,    170,    0.0,    5.8,   0.00,   0.00, 1000.6,    0.5, -999.0
26-03-2023, 00:19:57,    176,    0.0,    5.8,   0.00,   0.00, 1000.5,    0.6, -999.0
26-03-2023, 00:20:07,    170,    0.0,    5.8,   0.00,   0.00, 1000.6,    0.6, -999.0
26-03-2023, 00:20:17,    171,    0.0,    5.7,   0.00,   0.00, 1000.5,    0.5, -999.0
26-03-2023, 00:20:27,    170,    0.0,    5.7,   0.00,   0.00, 1000.6,    0.7, -999.0
26-03-2023, 00:20:37,    170,    0.0,    5.7,   0.00,   0.00, 1000.5,    0.6, -999.0
26-03-2023, 00:20:47,    170,    0.0,    5.7,   0.00,   0.00, 1000.6,    0.6, -999.0
26-03-2023, 00:20:57,    169,    0.0,    5.8,   0.00,   0.00, 1000.6,    0.4, -999.0
26-03-2023, 00:21:07,    169,    0.0,    5.8,   0.00,   0.00, 1000.5,    0.6, -999.0
26-03-2023, 00:21:17,    171,    0.0,    5.8,   0.00,   0.00, 1000.5,    0.5, -999.0
26-03-2023, 00:21:27,    169,    0.0,    5.8,   0.00,   0.00, 1000.6,    0.3, -999.0
26-03-2023, 00:21:37,    170,    0.0,    5.9,   0.00,   0.00, 1000.6,    0.5, -999.0
26-03-2023, 00:21:47,    170,    0.0,    5.9,   0.00,   0.00, 1000.6,    0.6, -999.0
26-03-2023, 00:21:57,    166,    0.0,    5.8,   0.00,   0.00, 1000.5,    0.6, -999.0
26-03-2023, 00:22:07,    157,    0.1,    5.9,   0.00,   0.00, 1000.6,    0.5, -999.0
26-03-2023, 00:22:17,    157,    0.0,    5.8,   0.00,   0.00, 1000.6,    0.7, -999.0
26-03-2023, 00:22:27,    157,    0.0,    5.8,   0.00,   0.00, 1000.6,    0.8, -999.0
26-03-2023, 00:22:37,    157,    0.0,    5.7,   0.00,   0.00, 1000.5,    0.4, -999.0
26-03-2023, 00:22:46,    157,    0.0,    5.7,   0.00,   0.00, 1000.5,    0.6, -999.0
26-03-2023, 00:22:57,    191,    0.0,    5.8,   0.00,   0.00, 1000.5,    1.0, -999.0
26-03-2023, 00:23:07,    165,    0.7,    5.8,   0.00,   0.00, 1000.6,    0.7, -999.0
26-03-2023, 00:23:17,    161,    0.1,    5.8,   0.00,   0.00, 1000.5,    0.6, -999.0
26-03-2023, 00:23:26,    157,    1.4,    5.8,   0.00,   0.00, 1000.6,    0.3, -999.0
26-03-2023, 00:23:37,    157,    0.3,    5.8,   0.00,   0.00, 1000.6,    0.8, -999.0
26-03-2023, 00:23:47,    171,    0.0,    5.7,   0.00,   0.00, 1000.6,    0.7, -999.0
26-03-2023, 00:23:56,    172,    0.0,    5.7,   0.00,   0.00, 1000.5,    0.6, -999.0
26-03-2023, 00:24:06,    172,    0.0,    5.8,   0.00,   0.00, 1000.5,    0.7, -999.0
26-03-2023, 00:24:17,    171,    0.0,    5.8,   0.00,   0.00, 1000.5,    0.8, -999.0
26-03-2023, 00:24:26,    172,    0.2,    5.7,   0.00,   0.00, 1000.5,    0.5, -999.0
26-03-2023, 00:24:36,    171,    0.2,    5.8,   0.00,   0.00, 1000.6,    0.5, -999.0
26-03-2023, 00:24:46,    171,    0.1,    5.8,   0.00,   0.00, 1000.5,    1.0, -999.0
26-03-2023, 00:24:57,    171,    0.0,    5.7,   0.00,   0.00, 1000.5,    0.9, -999.0
26-03-2023, 00:25:06,    171,    0.0,    5.7,   0.00,   0.00, 1000.5,    0.2, -999.0
26-03-2023, 00:25:16,    170,    0.0,    5.7,   0.00,   0.00, 1000.5,    0.6, -999.0
26-03-2023, 00:25:26,    170,    0.0,    5.7,   0.00,   0.00, 1000.5,    0.7, -999.0
26-03-2023, 00:25:36,    171,    0.0,    5.6,   0.00,   0.00, 1000.5,    0.5, -999.0
26-03-2023, 00:25:46,    171,    0.0,    5.7,   0.00,   0.00, 1000.5,    0.7, -999.0
26-03-2023, 00:25:56,    171,    0.0,    5.7,   0.00,   0.00, 1000.5,    0.6, -999.0
26-03-2023, 00:26:06,    170,    0.0,    5.7,   0.00,   0.00, 1000.4,    0.7, -999.0
26-03-2023, 00:26:16,    170,    0.0,    5.7,   0.00,   0.00, 1000.4,    0.4, -999.0
26-03-2023, 00:26:26,    171,    0.0,    5.7,   0.00,   0.00, 1000.5,    0.8, -999.0
26-03-2023, 00:26:36,    170,    0.0,    5.8,   0.00,   0.00, 1000.5,    0.6, -999.0
26-03-2023, 00:26:46,    170,    0.0,    5.7,   0.00,   0.00, 1000.5,    0.5, -999.0
26-03-2023, 00:26:56,    170,    0.0,    5.7,   0.00,   0.00, 1000.5,    0.9, -999.0
26-03-2023, 00:27:06,    170,    0.0,    5.7,   0.00,   0.00, 1000.5,    0.7, -999.0
26-03-2023, 00:27:16,    170,    0.0,    5.6,   0.00,   0.00, 1000.5,    0.8, -999.0
26-03-2023, 00:27:26,    171,    0.0,    5.7,   0.00,   0.00, 1000.5,    0.6, -999.0
26-03-2023, 00:27:36,    173,    0.2,    5.8,   0.00,   0.00, 1000.6,    0.4, -999.0
26-03-2023, 00:27:46,    173,    0.0,    5.8,   0.00,   0.00, 1000.5,    0.5, -999.0
26-03-2023, 00:27:56,    173,    0.0,    5.7,   0.00,   0.00, 1000.5,    0.8, -999.0
26-03-2023, 00:28:06,    173,    0.2,    5.6,   0.00,   0.00, 1000.5,    0.8, -999.0
26-03-2023, 00:28:16,    172,    0.0,    5.7,   0.00,   0.00, 1000.5,    0.4, -999.0
26-03-2023, 00:28:26,    172,    0.0,    5.6,   0.00,   0.00, 1000.5,    0.6, -999.0
26-03-2023, 00:28:36,    127,    0.6,    5.8,   0.00,   0.00, 1000.6,    1.0, -999.0
26-03-2023, 00:28:46,    131,    0.8,    5.8,   0.00,   0.00, 1000.6,    0.9, -999.0
26-03-2023, 00:28:56,    142,    0.1,    5.8,   0.00,   0.00, 1000.5,    0.8, -999.0
26-03-2023, 00:29:06,    142,    0.6,    5.7,   0.00,   0.00, 1000.5,    0.5, -999.0
26-03-2023, 00:29:16,    141,    1.7,    5.7,   0.00,   0.00, 1000.6,    0.7, -999.0
26-03-2023, 00:29:26,    141,    0.0,    5.7,   0.00,   0.00, 1000.5,    0.7, -999.0
26-03-2023, 00:29:36,    141,    0.0,    5.7,   0.00,   0.00, 1000.5,    0.7, -999.0
26-03-2023, 00:29:46,    141,    0.0,    5.7,   0.00,   0.00, 1000.5,    0.3, -999.0
26-03-2023, 00:29:56,    144,    0.0,    5.7,   0.00,   0.00, 1000.5,    0.6, -999.0
26-03-2023, 00:30:06,    143,    0.5,    5.8,   0.00,   0.00, 1000.5,    0.6, -999.0
26-03-2023, 00:30:16,    142,    1.3,    5.8,   0.00,   0.00, 1000.6,    0.6, -999.0
26-03-2023, 00:30:26,    157,    1.2,    5.8,   0.00,   0.00, 1000.6,    0.6, -999.0
26-03-2023, 00:30:36,    165,    0.7,    5.8,   0.00,   0.00, 1000.6,    0.9, -999.0
26-03-2023, 00:30:46,    165,    0.2,    5.7,   0.00,   0.00, 1000.5,    0.5, -999.0
26-03-2023, 00:30:56,    164,    0.0,    5.7,   0.00,   0.00, 1000.4,    0.5, -999.0
26-03-2023, 00:31:06,    165,    0.0,    5.7,   0.00,   0.00, 1000.4,    0.6, -999.0
26-03-2023, 00:31:16,    167,    0.4,    5.8,   0.00,   0.00, 1000.5,    0.7, -999.0
26-03-2023, 00:31:26,    166,    0.3,    5.8,   0.00,   0.00, 1000.5,    0.7, -999.0
26-03-2023, 00:31:36,    166,    0.7,    5.8,   0.00,   0.00, 1000.6,    0.7, -999.0
26-03-2023, 00:31:46,    166,    0.3,    5.8,   0.00,   0.00, 1000.5,    0.6, -999.0
26-03-2023, 00:31:55,    166,    0.1,    5.8,   0.00,   0.00, 1000.5,    0.6, -999.0
26-03-2023, 00:32:06,    166,    0.8,    5.9,   0.00,   0.00, 1000.6,    0.6, -999.0
26-03-2023, 00:32:16,    167,    0.4,    5.8,   0.00,   0.00, 1000.6,    0.7, -999.0
26-03-2023, 00:32:25,    167,    0.4,    5.8,   0.00,   0.00, 1000.5,    1.0, -999.0
26-03-2023, 00:32:35,    167,    0.6,    5.8,   0.00,   0.00, 1000.5,    0.6, -999.0
26-03-2023, 00:32:46,    158,    1.1,    5.8,   0.00,   0.00, 1000.6,    0.7, -999.0
26-03-2023, 00:32:56,    158,    0.2,    5.8,   0.00,   0.00, 1000.5,    0.6, -999.0
26-03-2023, 00:33:05,    157,    0.1,    5.8,   0.00,   0.00, 1000.5,    0.6, -999.0
26-03-2023, 00:33:16,    158,    0.0,    5.7,   0.00,   0.00, 1000.4,    0.6, -999.0
26-03-2023, 00:33:26,    157,    0.4,    5.8,   0.00,   0.00, 1000.6,    0.4, -999.0
26-03-2023, 00:33:35,    157,    0.4,    5.9,   0.00,   0.00, 1000.5,    0.3, -999.0
26-03-2023, 00:33:45,    156,    0.9,    5.8,   0.00,   0.00, 1000.5,    0.6, -999.0
26-03-2023, 00:33:56,    152,    1.2,    5.8,   0.00,   0.00, 1000.6,    0.2, -999.0
26-03-2023, 00:34:06,    155,    2.1,    5.8,   0.00,   0.00, 1000.6,    1.2, -999.0
26-03-2023, 00:34:15,    155,    0.7,    5.8,   0.00,   0.00, 1000.5,    0.4, -999.0
26-03-2023, 00:34:25,    155,    0.0,    5.7,   0.00,   0.00, 1000.4,    0.5, -999.0
26-03-2023, 00:34:36,    155,    0.0,    5.6,   0.00,   0.00, 1000.5,    0.6, -999.0
26-03-2023, 00:34:45,    155,    0.0,    5.7,   0.00,   0.00, 1000.4,    0.6, -999.0
26-03-2023, 00:34:55,    155,    0.0,    5.7,   0.00,   0.00, 1000.4,    0.5, -999.0
26-03-2023, 00:35:05,    156,    0.3,    5.8,   0.00,   0.00, 1000.6,    0.7, -999.0
26-03-2023, 00:35:15,    156,    0.0,    5.7,   0.00,   0.00, 1000.4,    0.7, -999.0
26-03-2023, 00:35:25,    156,    0.0,    5.6,   0.00,   0.00, 1000.4,    0.5, -999.0
26-03-2023, 00:35:35,    156,    0.0,    5.7,   0.00,   0.00, 1000.4,    0.1, -999.0
26-03-2023, 00:35:45,    156,    0.0,    5.7,   0.00,   0.00, 1000.4,    0.4, -999.0
26-03-2023, 00:35:55,    156,    0.0,    5.8,   0.00,   0.00, 1000.4,    0.8, -999.0
26-03-2023, 00:36:05,    156,    0.4,    5.8,   0.00,   0.00, 1000.5,    0.5, -999.0
26-03-2023, 00:36:15,    156,    0.2,    5.8,   0.00,   0.00, 1000.5,    1.0, -999.0
26-03-2023, 00:36:25,    156,    0.0,    5.7,   0.00,   0.00, 1000.4,    0.7, -999.0
26-03-2023, 00:36:35,    156,    0.0,    5.8,   0.00,   0.00, 1000.4,    0.6, -999.0
26-03-2023, 00:36:45,    155,    0.0,    5.8,   0.00,   0.00, 1000.4,    0.7, -999.0
26-03-2023, 00:36:55,    156,    0.0,    5.8,   0.00,   0.00, 1000.4,    0.5, -999.0
26-03-2023, 00:37:05,    156,    0.0,    5.9,   0.00,   0.00, 1000.4,    0.6, -999.0
26-03-2023, 00:37:15,    156,    0.0,    5.9,   0.00,   0.00, 1000.4,    0.7, -999.0
26-03-2023, 00:37:25,    156,    0.0,    5.9,   0.00,   0.00, 1000.4,    0.3, -999.0
26-03-2023, 00:37:35,    156,    0.0,    5.8,   0.00,   0.00, 1000.4,    0.7, -999.0
26-03-2023, 00:37:45,    156,    0.5,    6.0,   0.00,   0.00, 1000.5,    0.8, -999.0
26-03-2023, 00:37:55,    155,    0.4,    5.9,   0.00,   0.00, 1000.5,    0.9, -999.0
26-03-2023, 00:38:05,    155,    0.0,    5.9,   0.00,   0.00, 1000.4,    0.5, -999.0
26-03-2023, 00:38:15,    156,    0.0,    5.9,   0.00,   0.00, 1000.4,    0.5, -999.0
26-03-2023, 00:38:25,    156,    0.0,    5.8,   0.00,   0.00, 1000.4,    0.4, -999.0
26-03-2023, 00:38:35,    156,    0.0,    5.8,   0.00,   0.00, 1000.4,    0.7, -999.0
26-03-2023, 00:38:45,    155,    0.0,    5.9,   0.00,   0.00, 1000.4,    0.6, -999.0
26-03-2023, 00:38:55,    156,    0.0,    5.9,   0.00,   0.00, 1000.4,    0.6, -999.0
26-03-2023, 00:39:05,    156,    0.1,    5.9,   0.00,   0.00, 1000.4,    0.5, -999.0
26-03-2023, 00:39:15,    157,    0.1,    5.8,   0.00,   0.00, 1000.4,    0.8, -999.0
26-03-2023, 00:39:25,    157,    0.0,    5.8,   0.00,   0.00, 1000.4,    0.6, -999.0
26-03-2023, 00:39:35,    159,    0.0,    5.8,   0.00,   0.00, 1000.4,    0.5, -999.0
26-03-2023, 00:39:45,    156,    0.0,    5.7,   0.00,   0.00, 1000.3,    0.5, -999.0
26-03-2023, 00:39:55,    159,    0.0,    5.8,   0.00,   0.00, 1000.4,    0.6, -999.0
26-03-2023, 00:40:05,    159,    0.0,    5.8,   0.00,   0.00, 1000.4,    0.6, -999.0
26-03-2023, 00:40:15,    159,    0.0,    5.8,   0.00,   0.00, 1000.3,    0.6, -999.0
26-03-2023, 00:40:24,    159,    0.0,    5.7,   0.00,   0.00, 1000.4,    0.5, -999.0
26-03-2023, 00:40:35,    150,    0.2,    5.9,   0.00,   0.00, 1000.4,    0.6, -999.0
26-03-2023, 00:40:45,    150,    0.2,    6.0,   0.00,   0.00, 1000.4,    0.4, -999.0
26-03-2023, 00:40:54,    150,    0.0,    5.8,   0.00,   0.00, 1000.3,    0.7, -999.0
26-03-2023, 00:41:05,    149,    0.0,    6.0,   0.00,   0.00, 1000.3,    0.6, -999.0
26-03-2023, 00:41:15,    149,    0.0,    5.9,   0.00,   0.00, 1000.3,    0.5, -999.0
26-03-2023, 00:41:25,    150,    0.0,    5.9,   0.00,   0.00, 1000.4,    0.5, -999.0
26-03-2023, 00:41:34,    150,    0.2,    5.9,   0.00,   0.00, 1000.4,    0.6, -999.0
26-03-2023, 00:41:45,    150,    0.0,    5.8,   0.00,   0.00, 1000.3,    0.7, -999.0
26-03-2023, 00:41:55,    150,    0.0,    5.8,   0.00,   0.00, 1000.3,    0.6, -999.0
26-03-2023, 00:42:04,    150,    0.0,    5.9,   0.00,   0.00, 1000.3,    0.5, -999.0
26-03-2023, 00:42:14,    149,    0.0,    5.8,   0.00,   0.00, 1000.3,    0.5, -999.0
26-03-2023, 00:42:25,    150,    0.0,    5.8,   0.00,   0.00, 1000.3,    0.6, -999.0
26-03-2023, 00:42:35,    150,    0.0,    5.8,   0.00,   0.00, 1000.3,    0.6, -999.0
26-03-2023, 00:42:44,    149,    0.0,    5.8,   0.00,   0.00, 1000.4,    0.7, -999.0
26-03-2023, 00:42:54,    150,    0.0,    5.8,   0.00,   0.00, 1000.3,    0.5, -999.0
26-03-2023, 00:43:05,    150,    0.0,    5.8,   0.00,   0.00, 1000.3,    0.7, -999.0
26-03-2023, 00:43:14,    150,    0.0,    5.8,   0.00,   0.00, 1000.3,    0.6, -999.0
26-03-2023, 00:43:24,    150,    0.0,    5.8,   0.00,   0.00, 1000.3,    0.5, -999.0
26-03-2023, 00:43:34,    150,    0.0,    5.7,   0.00,   0.00, 1000.3,    0.5, -999.0
26-03-2023, 00:43:44,    152,    0.0,    5.7,   0.00,   0.00, 1000.3,    0.6, -999.0
26-03-2023, 00:43:54,    153,    0.0,    5.7,   0.00,   0.00, 1000.3,    0.5, -999.0
26-03-2023, 00:44:04,    152,    0.0,    5.8,   0.00,   0.00, 1000.3,    0.7, -999.0
26-03-2023, 00:44:15,    152,    0.5,    5.8,   0.00,   0.00, 1000.3,    0.3, -999.0
26-03-2023, 00:44:24,    151,    0.2,    5.9,   0.00,   0.00, 1000.3,    0.4, -999.0
26-03-2023, 00:44:34,    151,    0.3,    6.0,   0.00,   0.00, 1000.3,    0.6, -999.0
26-03-2023, 00:44:44,    152,    0.0,    5.9,   0.00,   0.00, 1000.3,    0.4, -999.0
26-03-2023, 00:44:54,    151,    0.0,    5.9,   0.00,   0.00, 1000.3,    0.7, -999.0
26-03-2023, 00:45:04,    151,    0.0,    5.9,   0.00,   0.00, 1000.2,    0.5, -999.0
26-03-2023, 00:45:14,    151,    0.0,    6.0,   0.00,   0.00, 1000.3,    0.7, -999.0
26-03-2023, 00:45:24,    151,    0.0,    5.9,   0.00,   0.00, 1000.2,    0.7, -999.0
26-03-2023, 00:45:34,    151,    0.0,    5.9,   0.00,   0.00, 1000.2,    0.5, -999.0
26-03-2023, 00:45:44,    152,    0.0,    5.9,   0.00,   0.00, 1000.2,    0.5, -999.0
26-03-2023, 00:45:54,    152,    0.0,    6.1,   0.00,   0.00, 1000.2,    0.4, -999.0
26-03-2023, 00:46:04,    151,    0.0,    6.0,   0.00,   0.00, 1000.2,    0.4, -999.0
26-03-2023, 00:46:14,    151,    0.2,    6.0,   0.00,   0.00, 1000.3,    0.6, -999.0
26-03-2023, 00:46:24,    151,    0.2,    6.1,   0.00,   0.00, 1000.3,    0.5, -999.0
26-03-2023, 00:46:34,    150,    0.0,    6.0,   0.00,   0.00, 1000.2,    0.5, -999.0
26-03-2023, 00:46:44,    151,    0.0,    6.1,   0.00,   0.00, 1000.2,    0.7, -999.0
26-03-2023, 00:46:54,    151,    0.0,    6.1,   0.00,   0.00, 1000.2,    0.5, -999.0